Year,Month,Day,Hour,Minute,Value (Times are PST for windspeed in km/hr)
2016,07,30,00,00,16.50
2016,07,30,00,01,15.70
2016,07,30,00,02,14.50
2016,07,30,00,03,13.90
2016,07,30,00,04,14.40
2016,07,30,00,05,16.80
2016,07,30,00,06,17.10
2016,07,30,00,07,18.40
2016,07,30,00,08,12.70
2016,07,30,00,09,20.40
2016,07,30,00,10,16.20
2016,07,30,00,11,15.00
2016,07,30,00,12,14.40
2016,07,30,00,13,14.90
2016,07,30,00,14,18.90
2016,07,30,00,15,17.30
2016,07,30,00,16,11.20
2016,07,30,00,17,10.60
2016,07,30,00,18,13.50
2016,07,30,00,19,11.80
2016,07,30,00,20,10.00
2016,07,30,00,21,13.50
2016,07,30,00,22,11.80
2016,07,30,00,23,18.00
2016,07,30,00,24,16.60
2016,07,30,00,25,11.80
2016,07,30,00,26,10.00
2016,07,30,00,27,12.40
2016,07,30,00,28,18.10
2016,07,30,00,29,19.30
2016,07,30,00,30,12.80
2016,07,30,00,31,15.90
2016,07,30,00,32,15.40
2016,07,30,00,33,17.60
2016,07,30,00,34,15.10
2016,07,30,00,35,16.10
2016,07,30,00,36,14.00
2016,07,30,00,37,14.20
2016,07,30,00,38,18.50
2016,07,30,00,39,13.10
2016,07,30,00,40,19.60
2016,07,30,00,41,19.00
2016,07,30,00,42,12.60
2016,07,30,00,43,13.70
2016,07,30,00,44,17.00
2016,07,30,00,45,14.60
2016,07,30,00,46,14.30
2016,07,30,00,47,12.90
2016,07,30,00,48,10.60
2016,07,30,00,49,15.40
2016,07,30,00,50,14.40
2016,07,30,00,51,17.50
2016,07,30,00,52,14.80
2016,07,30,00,53,12.40
2016,07,30,00,54,15.20
2016,07,30,00,55,13.70
2016,07,30,00,56,9.00
2016,07,30,00,57,14.50
2016,07,30,00,58,12.20
2016,07,30,00,59,10.20
2016,07,30,01,00,12.70
2016,07,30,01,01,16.80
2016,07,30,01,02,13.90
2016,07,30,01,03,12.10
2016,07,30,01,04,17.50
2016,07,30,01,05,9.90
2016,07,30,01,06,10.30
2016,07,30,01,07,14.60
2016,07,30,01,08,14.30
2016,07,30,01,09,17.90
2016,07,30,01,10,20.30
2016,07,30,01,11,16.50
2016,07,30,01,12,20.80
2016,07,30,01,13,13.60
2016,07,30,01,14,13.10
2016,07,30,01,15,16.40
2016,07,30,01,16,15.90
2016,07,30,01,17,13.30
2016,07,30,01,18,8.70
2016,07,30,01,19,8.60
2016,07,30,01,20,11.60
2016,07,30,01,21,15.70
2016,07,30,01,22,13.80
2016,07,30,01,23,10.70
2016,07,30,01,24,8.20
2016,07,30,01,25,10.20
2016,07,30,01,26,16.00
2016,07,30,01,27,14.80
2016,07,30,01,28,13.90
2016,07,30,01,29,13.20
2016,07,30,01,30,10.50
2016,07,30,01,31,21.80
2016,07,30,01,32,16.70
2016,07,30,01,33,14.30
2016,07,30,01,34,15.90
2016,07,30,01,35,13.60
2016,07,30,01,36,16.20
2016,07,30,01,37,12.70
2016,07,30,01,38,6.30
2016,07,30,01,39,8.90
2016,07,30,01,40,11.30
2016,07,30,01,41,13.60
2016,07,30,01,42,12.10
2016,07,30,01,43,6.30
2016,07,30,01,44,10.00
2016,07,30,01,45,18.70
2016,07,30,01,46,14.10
2016,07,30,01,47,14.80
2016,07,30,01,48,17.90
2016,07,30,01,49,14.30
2016,07,30,01,50,12.10
2016,07,30,01,51,11.60
2016,07,30,01,52,10.80
2016,07,30,01,53,15.00
2016,07,30,01,54,17.00
2016,07,30,01,55,19.30
2016,07,30,01,56,14.10
2016,07,30,01,57,13.50
2016,07,30,01,58,13.00
2016,07,30,01,59,13.00
2016,07,30,02,00,17.10
2016,07,30,02,01,13.60
2016,07,30,02,02,11.70
2016,07,30,02,03,16.60
2016,07,30,02,04,17.40
2016,07,30,02,05,14.00
2016,07,30,02,06,14.30
2016,07,30,02,07,12.90
2016,07,30,02,08,14.20
2016,07,30,02,09,12.50
2016,07,30,02,10,14.50
2016,07,30,02,11,12.60
2016,07,30,02,12,9.90
2016,07,30,02,13,14.00
2016,07,30,02,14,15.90
2016,07,30,02,15,20.40
2016,07,30,02,16,16.30
2016,07,30,02,17,11.30
2016,07,30,02,18,13.40
2016,07,30,02,19,12.50
2016,07,30,02,20,12.30
2016,07,30,02,21,16.60
2016,07,30,02,22,13.50
2016,07,30,02,23,11.50
2016,07,30,02,24,11.60
2016,07,30,02,25,20.00
2016,07,30,02,26,15.30
2016,07,30,02,27,13.60
2016,07,30,02,28,18.60
2016,07,30,02,29,17.00
2016,07,30,02,30,13.30
2016,07,30,02,31,14.80
2016,07,30,02,32,11.70
2016,07,30,02,33,14.30
2016,07,30,02,34,16.00
2016,07,30,02,35,16.40
2016,07,30,02,36,15.70
2016,07,30,02,37,14.10
2016,07,30,02,38,16.30
2016,07,30,02,39,15.90
2016,07,30,02,40,14.10
2016,07,30,02,41,22.80
2016,07,30,02,42,25.80
2016,07,30,02,43,26.10
2016,07,30,02,44,19.60
2016,07,30,02,45,20.00
2016,07,30,02,46,19.40
2016,07,30,02,47,22.50
2016,07,30,02,48,19.20
2016,07,30,02,49,18.10
2016,07,30,02,50,21.10
2016,07,30,02,51,16.90
2016,07,30,02,52,19.20
2016,07,30,02,53,16.20
2016,07,30,02,54,20.90
2016,07,30,02,55,15.00
2016,07,30,02,56,14.10
2016,07,30,02,57,16.60
2016,07,30,02,58,15.60
2016,07,30,02,59,14.60
2016,07,30,03,00,16.20
2016,07,30,03,01,14.60
2016,07,30,03,02,14.50
2016,07,30,03,03,14.00
2016,07,30,03,04,15.50
2016,07,30,03,05,12.80
2016,07,30,03,06,13.50
2016,07,30,03,07,11.60
2016,07,30,03,08,18.80
2016,07,30,03,09,14.20
2016,07,30,03,10,11.90
2016,07,30,03,11,12.30
2016,07,30,03,12,10.40
2016,07,30,03,13,16.70
2016,07,30,03,14,15.70
2016,07,30,03,15,19.20
2016,07,30,03,16,17.00
2016,07,30,03,17,16.10
2016,07,30,03,18,18.10
2016,07,30,03,19,13.00
2016,07,30,03,20,14.90
2016,07,30,03,21,23.20
2016,07,30,03,22,18.90
2016,07,30,03,23,13.50
2016,07,30,03,24,15.80
2016,07,30,03,25,21.90
2016,07,30,03,26,17.00
2016,07,30,03,27,12.20
2016,07,30,03,28,14.20
2016,07,30,03,29,12.70
2016,07,30,03,30,15.50
2016,07,30,03,31,16.00
2016,07,30,03,32,15.10
2016,07,30,03,33,13.00
2016,07,30,03,34,12.70
2016,07,30,03,35,9.60
2016,07,30,03,36,13.40
2016,07,30,03,37,13.00
2016,07,30,03,38,18.00
2016,07,30,03,39,18.50
2016,07,30,03,40,11.00
2016,07,30,03,41,12.70
2016,07,30,03,42,18.50
2016,07,30,03,43,15.60
2016,07,30,03,44,12.00
2016,07,30,03,45,13.20
2016,07,30,03,46,12.80
2016,07,30,03,47,15.30
2016,07,30,03,48,14.50
2016,07,30,03,49,11.80
2016,07,30,03,50,13.50
2016,07,30,03,51,14.00
2016,07,30,03,52,14.30
2016,07,30,03,53,10.60
2016,07,30,03,54,11.60
2016,07,30,03,55,12.10
2016,07,30,03,56,14.40
2016,07,30,03,57,11.40
2016,07,30,03,58,9.20
2016,07,30,03,59,13.60
2016,07,30,04,00,11.60
2016,07,30,04,01,16.90
2016,07,30,04,02,16.00
2016,07,30,04,03,13.60
2016,07,30,04,04,9.70
2016,07,30,04,05,12.10
2016,07,30,04,06,9.80
2016,07,30,04,07,10.00
2016,07,30,04,08,15.00
2016,07,30,04,09,13.50
2016,07,30,04,10,8.60
2016,07,30,04,11,11.30
2016,07,30,04,12,9.00
2016,07,30,04,13,16.00
2016,07,30,04,14,10.70
2016,07,30,04,15,13.70
2016,07,30,04,16,12.30
2016,07,30,04,17,12.40
2016,07,30,04,18,10.80
2016,07,30,04,19,12.20
2016,07,30,04,20,16.70
2016,07,30,04,21,12.80
2016,07,30,04,22,18.10
2016,07,30,04,23,15.60
2016,07,30,04,24,17.70
2016,07,30,04,25,15.80
2016,07,30,04,26,11.10
2016,07,30,04,27,16.80
2016,07,30,04,28,10.80
2016,07,30,04,29,11.00
2016,07,30,04,30,10.60
2016,07,30,04,31,10.40
2016,07,30,04,32,12.60
2016,07,30,04,33,13.60
2016,07,30,04,34,15.30
2016,07,30,04,35,12.70
2016,07,30,04,36,10.80
2016,07,30,04,37,12.10
2016,07,30,04,38,12.60
2016,07,30,04,39,11.40
2016,07,30,04,40,13.70
2016,07,30,04,41,12.60
2016,07,30,04,42,17.20
2016,07,30,04,43,14.60
2016,07,30,04,44,12.80
2016,07,30,04,45,15.30
2016,07,30,04,46,13.90
2016,07,30,04,47,16.40
2016,07,30,04,48,15.50
2016,07,30,04,49,15.50
2016,07,30,04,50,20.80
2016,07,30,04,51,17.20
2016,07,30,04,52,10.70
2016,07,30,04,53,14.30
2016,07,30,04,54,12.40
2016,07,30,04,55,13.40
2016,07,30,04,56,8.70
2016,07,30,04,57,14.20
2016,07,30,04,58,16.60
2016,07,30,04,59,11.20
2016,07,30,05,00,11.10
2016,07,30,05,01,12.90
2016,07,30,05,02,12.60
2016,07,30,05,03,14.90
2016,07,30,05,04,9.90
2016,07,30,05,05,9.80
2016,07,30,05,06,8.60
2016,07,30,05,07,10.00
2016,07,30,05,08,12.10
2016,07,30,05,09,9.90
2016,07,30,05,10,13.90
2016,07,30,05,11,11.60
2016,07,30,05,12,10.10
2016,07,30,05,13,9.10
2016,07,30,05,14,14.40
2016,07,30,05,15,12.40
2016,07,30,05,16,11.10
2016,07,30,05,17,12.40
2016,07,30,05,18,13.90
2016,07,30,05,19,13.00
2016,07,30,05,20,11.10
2016,07,30,05,21,12.20
2016,07,30,05,22,13.80
2016,07,30,05,23,11.60
2016,07,30,05,24,11.00
2016,07,30,05,25,12.40
2016,07,30,05,26,11.50
2016,07,30,05,27,16.20
2016,07,30,05,28,14.70
2016,07,30,05,29,10.30
2016,07,30,05,30,8.10
2016,07,30,05,31,11.00
2016,07,30,05,32,14.00
2016,07,30,05,33,8.50
2016,07,30,05,34,11.30
2016,07,30,05,35,9.40
2016,07,30,05,36,8.20
2016,07,30,05,37,12.80
2016,07,30,05,38,12.30
2016,07,30,05,39,14.90
2016,07,30,05,40,13.20
2016,07,30,05,41,11.00
2016,07,30,05,42,9.70
2016,07,30,05,43,13.70
2016,07,30,05,44,10.00
2016,07,30,05,45,13.60
2016,07,30,05,46,14.70
2016,07,30,05,47,15.90
2016,07,30,05,48,13.00
2016,07,30,05,49,15.20
2016,07,30,05,50,13.60
2016,07,30,05,51,11.00
2016,07,30,05,52,11.40
2016,07,30,05,53,12.50
2016,07,30,05,54,13.00
2016,07,30,05,55,15.20
2016,07,30,05,56,10.80
2016,07,30,05,57,11.80
2016,07,30,05,58,12.00
2016,07,30,05,59,14.30
2016,07,30,06,00,12.20
2016,07,30,06,01,9.70
2016,07,30,06,02,11.60
2016,07,30,06,03,11.90
2016,07,30,06,04,16.70
2016,07,30,06,05,10.20
2016,07,30,06,06,9.60
2016,07,30,06,07,9.90
2016,07,30,06,08,12.30
2016,07,30,06,09,10.10
2016,07,30,06,10,13.10
2016,07,30,06,11,14.60
2016,07,30,06,12,13.90
2016,07,30,06,13,15.00
2016,07,30,06,14,11.90
2016,07,30,06,15,12.60
2016,07,30,06,16,12.80
2016,07,30,06,17,12.20
2016,07,30,06,18,10.40
2016,07,30,06,19,9.70
2016,07,30,06,20,12.40
2016,07,30,06,21,8.50
2016,07,30,06,22,11.40
2016,07,30,06,23,9.00
2016,07,30,06,24,10.60
2016,07,30,06,25,9.60
2016,07,30,06,26,10.50
2016,07,30,06,27,10.90
2016,07,30,06,28,11.70
2016,07,30,06,29,11.50
2016,07,30,06,30,11.40
2016,07,30,06,31,9.90
2016,07,30,06,32,8.50
2016,07,30,06,33,8.40
2016,07,30,06,34,6.40
2016,07,30,06,35,8.20
2016,07,30,06,36,11.00
2016,07,30,06,37,11.60
2016,07,30,06,38,8.10
2016,07,30,06,39,7.70
2016,07,30,06,40,9.20
2016,07,30,06,41,11.70
2016,07,30,06,42,9.40
2016,07,30,06,43,11.70
2016,07,30,06,44,9.40
2016,07,30,06,45,14.60
2016,07,30,06,46,11.30
2016,07,30,06,47,10.50
2016,07,30,06,48,14.30
2016,07,30,06,49,8.50
2016,07,30,06,50,7.00
2016,07,30,06,51,9.70
2016,07,30,06,52,10.20
2016,07,30,06,53,10.80
2016,07,30,06,54,9.90
2016,07,30,06,55,11.80
2016,07,30,06,56,9.20
2016,07,30,06,57,6.90
2016,07,30,06,58,9.60
2016,07,30,06,59,13.40
2016,07,30,07,00,9.80
2016,07,30,07,01,10.90
2016,07,30,07,02,10.50
2016,07,30,07,03,9.80
2016,07,30,07,04,7.80
2016,07,30,07,05,5.10
2016,07,30,07,06,5.40
2016,07,30,07,07,8.70
2016,07,30,07,08,7.30
2016,07,30,07,09,12.20
2016,07,30,07,10,7.10
2016,07,30,07,11,10.80
2016,07,30,07,12,9.90
2016,07,30,07,13,8.60
2016,07,30,07,14,11.80
2016,07,30,07,15,8.50
2016,07,30,07,16,9.60
2016,07,30,07,17,10.00
2016,07,30,07,18,7.70
2016,07,30,07,19,9.20
2016,07,30,07,20,9.00
2016,07,30,07,21,13.80
2016,07,30,07,22,11.80
2016,07,30,07,23,9.20
2016,07,30,07,24,7.70
2016,07,30,07,25,6.40
2016,07,30,07,26,7.80
2016,07,30,07,27,8.50
2016,07,30,07,28,10.00
2016,07,30,07,29,9.20
2016,07,30,07,30,7.80
2016,07,30,07,31,8.20
2016,07,30,07,32,8.30
2016,07,30,07,33,11.60
2016,07,30,07,34,9.60
2016,07,30,07,35,9.00
2016,07,30,07,36,9.60
2016,07,30,07,37,5.50
2016,07,30,07,38,6.00
2016,07,30,07,39,4.80
2016,07,30,07,40,4.50
2016,07,30,07,41,8.10
2016,07,30,07,42,10.70
2016,07,30,07,43,3.70
2016,07,30,07,44,10.20
2016,07,30,07,45,9.20
2016,07,30,07,46,8.50
2016,07,30,07,47,11.00
2016,07,30,07,48,11.00
2016,07,30,07,49,11.00
2016,07,30,07,50,10.00
2016,07,30,07,51,16.30
2016,07,30,07,52,13.80
2016,07,30,07,53,7.90
2016,07,30,07,54,8.40
2016,07,30,07,55,9.20
2016,07,30,07,56,9.10
2016,07,30,07,57,9.60
2016,07,30,07,58,13.80
2016,07,30,07,59,11.80
2016,07,30,08,00,8.90
2016,07,30,08,01,10.40
2016,07,30,08,02,8.10
2016,07,30,08,03,8.20
2016,07,30,08,04,11.10
2016,07,30,08,05,10.30
2016,07,30,08,06,13.00
2016,07,30,08,07,10.40
2016,07,30,08,08,14.10
2016,07,30,08,09,11.50
2016,07,30,08,10,8.50
2016,07,30,08,11,10.50
2016,07,30,08,12,9.50
2016,07,30,08,13,9.40
2016,07,30,08,14,9.10
2016,07,30,08,15,8.00
2016,07,30,08,16,10.30
2016,07,30,08,17,6.70
2016,07,30,08,18,6.10
2016,07,30,08,19,8.10
2016,07,30,08,20,7.10
2016,07,30,08,21,6.90
2016,07,30,08,22,7.80
2016,07,30,08,23,7.50
2016,07,30,08,24,5.70
2016,07,30,08,25,11.20
2016,07,30,08,26,9.00
2016,07,30,08,27,6.40
2016,07,30,08,28,9.90
2016,07,30,08,29,8.10
2016,07,30,08,30,9.50
2016,07,30,08,31,8.50
2016,07,30,08,32,7.10
2016,07,30,08,33,12.00
2016,07,30,08,34,6.60
2016,07,30,08,35,10.50
2016,07,30,08,36,12.90
2016,07,30,08,37,13.30
2016,07,30,08,38,14.40
2016,07,30,08,39,11.70
2016,07,30,08,40,12.30
2016,07,30,08,41,9.30
2016,07,30,08,42,10.90
2016,07,30,08,43,11.30
2016,07,30,08,44,8.60
2016,07,30,08,45,9.40
2016,07,30,08,46,7.30
2016,07,30,08,47,6.30
2016,07,30,08,48,11.20
2016,07,30,08,49,14.30
2016,07,30,08,50,7.60
2016,07,30,08,51,9.10
2016,07,30,08,52,18.70
2016,07,30,08,53,14.60
2016,07,30,08,54,12.60
2016,07,30,08,55,10.30
2016,07,30,08,56,8.40
2016,07,30,08,57,7.80
2016,07,30,08,58,8.50
2016,07,30,08,59,8.20
2016,07,30,09,00,5.00
2016,07,30,09,01,5.60
2016,07,30,09,02,7.40
2016,07,30,09,03,7.60
2016,07,30,09,04,5.10
2016,07,30,09,05,6.70
2016,07,30,09,06,3.40
2016,07,30,09,07,0.90
2016,07,30,09,08,5.10
2016,07,30,09,09,13.30
2016,07,30,09,10,14.60
2016,07,30,09,11,11.70
2016,07,30,09,12,6.40
2016,07,30,09,13,10.80
2016,07,30,09,14,9.70
2016,07,30,09,15,9.90
2016,07,30,09,16,10.50
2016,07,30,09,17,5.00
2016,07,30,09,18,4.90
2016,07,30,09,19,8.00
2016,07,30,09,20,10.30
2016,07,30,09,21,7.10
2016,07,30,09,22,5.70
2016,07,30,09,23,3.60
2016,07,30,09,24,5.10
2016,07,30,09,25,7.70
2016,07,30,09,26,3.50
2016,07,30,09,27,3.90
2016,07,30,09,28,8.60
2016,07,30,09,29,9.80
2016,07,30,09,30,11.50
2016,07,30,09,31,6.20
2016,07,30,09,32,6.90
2016,07,30,09,33,5.00
2016,07,30,09,34,11.90
2016,07,30,09,35,10.60
2016,07,30,09,36,8.30
2016,07,30,09,37,8.20
2016,07,30,09,38,8.90
2016,07,30,09,39,7.10
2016,07,30,09,40,8.10
2016,07,30,09,41,13.70
2016,07,30,09,42,8.90
2016,07,30,09,43,5.20
2016,07,30,09,44,6.80
2016,07,30,09,45,1.70
2016,07,30,09,46,9.50
2016,07,30,09,47,11.60
2016,07,30,09,48,11.90
2016,07,30,09,49,9.80
2016,07,30,09,50,3.10
2016,07,30,09,51,3.50
2016,07,30,09,52,11.80
2016,07,30,09,53,11.70
2016,07,30,09,54,13.20
2016,07,30,09,55,14.00
2016,07,30,09,56,12.20
2016,07,30,09,57,6.30
2016,07,30,09,58,3.40
2016,07,30,09,59,7.70
2016,07,30,10,00,6.70
2016,07,30,10,01,11.30
2016,07,30,10,02,10.20
2016,07,30,10,03,11.00
2016,07,30,10,04,9.30
2016,07,30,10,05,9.10
2016,07,30,10,06,9.10
2016,07,30,10,07,9.00
2016,07,30,10,08,10.30
2016,07,30,10,09,14.60
2016,07,30,10,10,10.50
2016,07,30,10,11,14.60
2016,07,30,10,12,8.90
2016,07,30,10,13,13.60
2016,07,30,10,14,13.60
2016,07,30,10,15,12.20
2016,07,30,10,16,13.80
2016,07,30,10,17,13.70
2016,07,30,10,18,10.30
2016,07,30,10,19,11.90
2016,07,30,10,20,13.00
2016,07,30,10,21,14.50
2016,07,30,10,22,13.20
2016,07,30,10,23,12.40
2016,07,30,10,24,11.70
2016,07,30,10,25,12.20
2016,07,30,10,26,11.60
2016,07,30,10,27,16.50
2016,07,30,10,28,15.30
2016,07,30,10,29,11.50
2016,07,30,10,30,14.40
2016,07,30,10,31,17.30
2016,07,30,10,32,14.80
2016,07,30,10,33,12.60
2016,07,30,10,34,17.60
2016,07,30,10,35,17.00
2016,07,30,10,36,14.40
2016,07,30,10,37,13.80
2016,07,30,10,38,12.00
2016,07,30,10,39,17.00
2016,07,30,10,40,18.80
2016,07,30,10,41,14.90
2016,07,30,10,42,14.50
2016,07,30,10,43,12.30
2016,07,30,10,44,8.50
2016,07,30,10,45,14.20
2016,07,30,10,46,17.00
2016,07,30,10,47,14.50
2016,07,30,10,48,12.90
2016,07,30,10,49,14.80
2016,07,30,10,50,17.00
2016,07,30,10,51,13.50
2016,07,30,10,52,14.50
2016,07,30,10,53,13.90
2016,07,30,10,54,14.60
2016,07,30,10,55,13.40
2016,07,30,10,56,11.70
2016,07,30,10,57,21.30
2016,07,30,10,58,15.30
2016,07,30,10,59,11.10
2016,07,30,11,00,11.70
2016,07,30,11,01,14.30
2016,07,30,11,02,16.30
2016,07,30,11,03,15.50
2016,07,30,11,04,15.90
2016,07,30,11,05,15.50
2016,07,30,11,06,13.80
2016,07,30,11,07,15.60
2016,07,30,11,08,13.80
2016,07,30,11,09,13.20
2016,07,30,11,10,10.90
2016,07,30,11,11,10.60
2016,07,30,11,12,8.40
2016,07,30,11,13,10.70
2016,07,30,11,14,12.40
2016,07,30,11,15,16.90
2016,07,30,11,16,14.80
2016,07,30,11,17,11.30
2016,07,30,11,18,13.00
2016,07,30,11,19,16.30
2016,07,30,11,20,13.00
2016,07,30,11,21,13.50
2016,07,30,11,22,9.20
2016,07,30,11,23,12.40
2016,07,30,11,24,11.60
2016,07,30,11,25,12.30
2016,07,30,11,26,11.30
2016,07,30,11,27,12.40
2016,07,30,11,28,14.20
2016,07,30,11,29,16.60
2016,07,30,11,30,12.60
2016,07,30,11,31,12.80
2016,07,30,11,32,8.30
2016,07,30,11,33,11.20
2016,07,30,11,34,11.40
2016,07,30,11,35,8.80
2016,07,30,11,36,14.00
2016,07,30,11,37,13.50
2016,07,30,11,38,13.10
2016,07,30,11,39,12.90
2016,07,30,11,40,11.30
2016,07,30,11,41,11.60
2016,07,30,11,42,17.80
2016,07,30,11,43,18.50
2016,07,30,11,44,20.00
2016,07,30,11,45,19.20
2016,07,30,11,46,16.50
2016,07,30,11,47,16.30
2016,07,30,11,48,12.00
2016,07,30,11,49,9.70
2016,07,30,11,50,6.10
2016,07,30,11,51,7.10
2016,07,30,11,52,11.00
2016,07,30,11,53,14.40
2016,07,30,11,54,15.50
2016,07,30,11,55,12.40
2016,07,30,11,56,12.00
2016,07,30,11,57,17.20
2016,07,30,11,58,15.70
2016,07,30,11,59,14.50
2016,07,30,12,00,16.80
2016,07,30,12,01,12.90
2016,07,30,12,02,17.50
2016,07,30,12,03,17.60
2016,07,30,12,04,12.50
2016,07,30,12,05,13.90
2016,07,30,12,06,15.80
2016,07,30,12,07,15.00
2016,07,30,12,08,16.40
2016,07,30,12,09,14.00
2016,07,30,12,10,13.00
2016,07,30,12,11,13.90
2016,07,30,12,12,10.70
2016,07,30,12,13,11.10
2016,07,30,12,14,13.40
2016,07,30,12,15,11.00
2016,07,30,12,16,9.40
2016,07,30,12,17,14.90
2016,07,30,12,18,17.20
2016,07,30,12,19,13.50
2016,07,30,12,20,14.60
2016,07,30,12,21,12.90
2016,07,30,12,22,15.20
2016,07,30,12,23,14.90
2016,07,30,12,24,12.50
2016,07,30,12,25,11.10
2016,07,30,12,26,15.80
2016,07,30,12,27,15.00
2016,07,30,12,28,11.30
2016,07,30,12,29,12.50
2016,07,30,12,30,12.70
2016,07,30,12,31,8.90
2016,07,30,12,32,12.00
2016,07,30,12,33,13.90
2016,07,30,12,34,16.10
2016,07,30,12,35,16.00
2016,07,30,12,36,13.30
2016,07,30,12,37,18.20
2016,07,30,12,38,16.70
2016,07,30,12,39,17.60
2016,07,30,12,40,11.10
2016,07,30,12,41,9.70
2016,07,30,12,42,15.10
2016,07,30,12,43,10.30
2016,07,30,12,44,11.50
2016,07,30,12,45,10.80
2016,07,30,12,46,16.40
2016,07,30,12,47,13.50
2016,07,30,12,48,17.00
2016,07,30,12,49,15.60
2016,07,30,12,50,14.90
2016,07,30,12,51,16.60
2016,07,30,12,52,20.10
2016,07,30,12,53,18.30
2016,07,30,12,54,18.70
2016,07,30,12,55,18.40
2016,07,30,12,56,18.00
2016,07,30,12,57,14.30
2016,07,30,12,58,15.60
2016,07,30,12,59,18.20
2016,07,30,13,00,19.20
2016,07,30,13,01,14.10
2016,07,30,13,02,20.30
2016,07,30,13,03,17.00
2016,07,30,13,04,19.20
2016,07,30,13,05,12.60
2016,07,30,13,06,14.70
2016,07,30,13,07,21.50
2016,07,30,13,08,19.50
2016,07,30,13,09,17.00
2016,07,30,13,10,20.70
2016,07,30,13,11,16.50
2016,07,30,13,12,19.50
2016,07,30,13,13,14.60
2016,07,30,13,14,15.60
2016,07,30,13,15,13.00
2016,07,30,13,16,15.70
2016,07,30,13,17,11.10
2016,07,30,13,18,11.10
2016,07,30,13,19,15.90
2016,07,30,13,20,16.40
2016,07,30,13,21,13.90
2016,07,30,13,22,14.60
2016,07,30,13,23,15.70
2016,07,30,13,24,17.90
2016,07,30,13,25,17.70
2016,07,30,13,26,13.00
2016,07,30,13,27,7.10
2016,07,30,13,28,12.90
2016,07,30,13,29,15.50
2016,07,30,13,30,14.50
2016,07,30,13,31,10.90
2016,07,30,13,32,9.10
2016,07,30,13,33,15.50
2016,07,30,13,34,19.20
2016,07,30,13,35,16.50
2016,07,30,13,36,14.10
2016,07,30,13,37,16.90
2016,07,30,13,38,16.60
2016,07,30,13,39,15.00
2016,07,30,13,40,14.40
2016,07,30,13,41,16.50
2016,07,30,13,42,13.70
2016,07,30,13,43,14.20
2016,07,30,13,44,16.20
2016,07,30,13,45,17.70
2016,07,30,13,46,13.70
2016,07,30,13,47,16.20
2016,07,30,13,48,12.60
2016,07,30,13,49,17.30
2016,07,30,13,50,14.80
2016,07,30,13,51,13.90
2016,07,30,13,52,16.90
2016,07,30,13,53,18.80
2016,07,30,13,54,20.50
2016,07,30,13,55,21.20
2016,07,30,13,56,13.70
2016,07,30,13,57,11.40
2016,07,30,13,58,13.90
2016,07,30,13,59,24.20
2016,07,30,14,00,15.30
2016,07,30,14,01,17.70
2016,07,30,14,02,16.10
2016,07,30,14,03,15.70
2016,07,30,14,04,10.50
2016,07,30,14,05,14.20
2016,07,30,14,06,11.60
2016,07,30,14,07,16.40
2016,07,30,14,08,13.10
2016,07,30,14,09,14.90
2016,07,30,14,10,13.60
2016,07,30,14,11,16.10
2016,07,30,14,12,15.50
2016,07,30,14,13,9.90
2016,07,30,14,14,15.20
2016,07,30,14,15,17.00
2016,07,30,14,16,15.20
2016,07,30,14,17,15.20
2016,07,30,14,18,14.60
2016,07,30,14,19,15.60
2016,07,30,14,20,14.60
2016,07,30,14,21,16.40
2016,07,30,14,22,20.30
2016,07,30,14,23,21.90
2016,07,30,14,24,18.30
2016,07,30,14,25,16.40
2016,07,30,14,26,15.90
2016,07,30,14,27,18.90
2016,07,30,14,28,14.30
2016,07,30,14,29,18.20
2016,07,30,14,30,14.80
2016,07,30,14,31,16.60
2016,07,30,14,32,17.70
2016,07,30,14,33,17.60
2016,07,30,14,34,17.90
2016,07,30,14,35,16.80
2016,07,30,14,36,14.30
2016,07,30,14,37,14.50
2016,07,30,14,38,13.60
2016,07,30,14,39,13.80
2016,07,30,14,40,11.50
2016,07,30,14,41,11.30
2016,07,30,14,42,11.50
2016,07,30,14,43,15.70
2016,07,30,14,44,16.80
2016,07,30,14,45,15.90
2016,07,30,14,46,14.60
2016,07,30,14,47,13.50
2016,07,30,14,48,16.10
2016,07,30,14,49,15.30
2016,07,30,14,50,18.90
2016,07,30,14,51,18.90
2016,07,30,14,52,20.10
2016,07,30,14,53,18.10
2016,07,30,14,54,13.90
2016,07,30,14,55,17.00
2016,07,30,14,56,14.60
2016,07,30,14,57,19.40
2016,07,30,14,58,17.20
2016,07,30,14,59,16.50
2016,07,30,15,00,18.70
2016,07,30,15,01,15.90
2016,07,30,15,02,18.90
2016,07,30,15,03,16.60
2016,07,30,15,04,17.80
2016,07,30,15,05,18.50
2016,07,30,15,06,20.40
2016,07,30,15,07,19.00
2016,07,30,15,08,18.00
2016,07,30,15,09,14.60
2016,07,30,15,10,17.50
2016,07,30,15,11,14.70
2016,07,30,15,12,19.80
2016,07,30,15,13,19.00
2016,07,30,15,14,19.10
2016,07,30,15,15,15.30
2016,07,30,15,16,15.00
2016,07,30,15,17,17.00
2016,07,30,15,18,17.10
2016,07,30,15,19,17.50
2016,07,30,15,20,15.80
2016,07,30,15,21,17.40
2016,07,30,15,22,13.60
2016,07,30,15,23,17.10
2016,07,30,15,24,16.50
2016,07,30,15,25,18.40
2016,07,30,15,26,17.40
2016,07,30,15,27,18.40
2016,07,30,15,28,15.50
2016,07,30,15,29,17.70
2016,07,30,15,30,14.80
2016,07,30,15,31,15.60
2016,07,30,15,32,13.30
2016,07,30,15,33,17.30
2016,07,30,15,34,15.20
2016,07,30,15,35,15.70
2016,07,30,15,36,13.00
2016,07,30,15,37,15.30
2016,07,30,15,38,16.90
2016,07,30,15,39,20.20
2016,07,30,15,40,15.30
2016,07,30,15,41,12.30
2016,07,30,15,42,12.60
2016,07,30,15,43,16.60
2016,07,30,15,44,20.40
2016,07,30,15,45,18.40
2016,07,30,15,46,16.70
2016,07,30,15,47,21.00
2016,07,30,15,48,21.10
2016,07,30,15,49,18.80
2016,07,30,15,50,18.90
2016,07,30,15,51,18.50
2016,07,30,15,52,14.10
2016,07,30,15,53,12.40
2016,07,30,15,54,14.60
2016,07,30,15,55,17.00
2016,07,30,15,56,17.20
2016,07,30,15,57,12.70
2016,07,30,15,58,15.90
2016,07,30,15,59,13.30
2016,07,30,16,00,17.90
2016,07,30,16,01,17.10
2016,07,30,16,02,15.40
2016,07,30,16,03,15.40
2016,07,30,16,04,18.70
2016,07,30,16,05,16.80
2016,07,30,16,06,15.90
2016,07,30,16,07,17.60
2016,07,30,16,08,20.20
2016,07,30,16,09,19.30
2016,07,30,16,10,16.90
2016,07,30,16,11,17.70
2016,07,30,16,12,18.30
2016,07,30,16,13,17.20
2016,07,30,16,14,17.60
2016,07,30,16,15,18.10
2016,07,30,16,16,18.80
2016,07,30,16,17,15.60
2016,07,30,16,18,13.90
2016,07,30,16,19,12.40
2016,07,30,16,20,15.20
2016,07,30,16,21,18.40
2016,07,30,16,22,13.90
2016,07,30,16,23,14.30
2016,07,30,16,24,18.10
2016,07,30,16,25,21.60
2016,07,30,16,26,21.50
2016,07,30,16,27,19.30
2016,07,30,16,28,15.00
2016,07,30,16,29,11.70
2016,07,30,16,30,11.70
2016,07,30,16,31,14.60
2016,07,30,16,32,19.80
2016,07,30,16,33,15.30
2016,07,30,16,34,11.90
2016,07,30,16,35,17.80
2016,07,30,16,36,18.20
2016,07,30,16,37,13.10
2016,07,30,16,38,13.20
2016,07,30,16,39,17.10
2016,07,30,16,40,16.50
2016,07,30,16,41,15.00
2016,07,30,16,42,16.60
2016,07,30,16,43,11.10
2016,07,30,16,44,10.40
2016,07,30,16,45,8.30
2016,07,30,16,46,13.60
2016,07,30,16,47,14.30
2016,07,30,16,48,12.50
2016,07,30,16,49,12.70
2016,07,30,16,50,15.00
2016,07,30,16,51,16.20
2016,07,30,16,52,12.60
2016,07,30,16,53,16.70
2016,07,30,16,54,17.40
2016,07,30,16,55,17.10
2016,07,30,16,56,16.00
2016,07,30,16,57,11.10
2016,07,30,16,58,10.80
2016,07,30,16,59,17.60
2016,07,30,17,00,14.00
2016,07,30,17,01,18.30
2016,07,30,17,02,14.20
2016,07,30,17,03,18.90
2016,07,30,17,04,18.20
2016,07,30,17,05,14.10
2016,07,30,17,06,16.20
2016,07,30,17,07,16.50
2016,07,30,17,08,13.40
2016,07,30,17,09,18.00
2016,07,30,17,10,18.50
2016,07,30,17,11,17.20
2016,07,30,17,12,21.80
2016,07,30,17,13,14.80
2016,07,30,17,14,10.40
2016,07,30,17,15,16.20
2016,07,30,17,16,23.30
2016,07,30,17,17,19.00
2016,07,30,17,18,17.10
2016,07,30,17,19,15.90
2016,07,30,17,20,15.60
2016,07,30,17,21,16.50
2016,07,30,17,22,14.80
2016,07,30,17,23,13.80
2016,07,30,17,24,14.90
2016,07,30,17,25,19.50
2016,07,30,17,26,18.10
2016,07,30,17,27,21.40